Powrót do katalogu

STARLINK-30079

AktywnyŁącznośćVLEO
NORAD 56706·PAYLOAD·🇺🇸 United States

Wystrzelony May 19, 2023 z Cape Canaveral Space Force Station

Loading…

Następne Przeloty (najbliższe 24 godziny)

TLE

ŚwieżeSource: CelesTrak SupGP

Epoka: Sep 14, 2026, 22:21 UTC

1 56706C 23067U   26257.93173611  .00015951  00000+0  57803-3 0  2578
2 56706  43.0028 292.6468 0001648 254.0402  11.1853 15.27554548    12

Śledź STARLINK-30079 w czasie rzeczywistym z AllMySat

Download on the App Store